Weather History for Belem Val de Caes, Brazil

Change the Weather History Date:

Friday, December 6, 2013

  Actual Average Record
Temperature  
Mean Temperature 82 °F -  
Max Temperature 90 °F 87 °F 93 °F (1997)
Min Temperature 75 °F 73 °F 74 °F (2012)
Cooling Degree Days 18    
Growing Degree Days 32 (Base 50)    
Moisture  
Dew Point 71 °F    
Average Humidity 69    
Maximum Humidity 94    
Minimum Humidity 34    
Precipitation  
Precipitation 0.00 in - - ()
Sea Level Pressure  
Sea Level Pressure 29.83 in    
Wind  
Wind Speed 8 mph ()    
Max Wind Speed 16 mph    
Max Gust Speed -    
Visibility 7.3 miles    
Events      
Averages and records for this station are not official NWS values.
T = Trace of Precipitation, MM = Missing Value Source: Averaged Metar Reports

Daily Weather History Graph

Daily Weather History Graph

Search for Another Location

Airport:

Trip Planner

Search our weather history database for the weather conditions in past years. The results will help you decide how hot, cold, wet, or windy it might be!

Date:

Astronomy

Dec. 06, 2013 Rise Set
Actual Time 5:59 AM BRT 6:11 PM BRT
Civil Twilight 5:36 AM BRT 6:33 PM BRT
Nautical Twilight 5:10 AM BRT 6:59 PM BRT
Astronomical Twilight 4:44 AM BRT 7:25 PM BRT
Moon 9:29 AM BRT (12/6) 9:58 PM BRT (12/6)
Length of Visible Light 12h 56m
Length of Day
12h 12m
Waxing Crescent, 18% of the Moon is Illuminated
Dec 6
Waxing Crescent
Dec 9
First Quarter
Dec 17
Full
Dec 25
Last Quarter
Jan 1
New

Hourly Weather History & Observations

Time (BRT) Temp. Heat Index Dew Point Humidity Pressure Visibility Wind Dir Wind Speed Gust Speed Precip Events Conditions
12:00 AM 77.0 °F - 73.4 °F 89% 29.86 in 6.2 mi NE 5.8 mph - N/A   Partly Cloudy
1:00 AM 77.0 °F - 73.4 °F 89% 29.83 in - NNE 4.6 mph - N/A   Clear
2:00 AM 77.0 °F - 73.4 °F 89% 29.83 in 6.2 mi NE 3.5 mph - N/A   Partly Cloudy
3:00 AM 77 °F - 73 °F 83% 29.83 in 12 mi NE 3.5 mph - -   Scattered Clouds
3:00 AM 77.0 °F - 73.4 °F 89% 29.83 in 6.2 mi NE 3.5 mph - N/A   Partly Cloudy
4:00 AM 77.0 °F - 73.4 °F 89% 29.80 in 6.2 mi ENE 4.6 mph - N/A   Partly Cloudy
5:00 AM 77.0 °F - 73.4 °F 89% 29.80 in 6.2 mi NE 6.9 mph - N/A   Partly Cloudy
6:00 AM 75.2 °F - 73.4 °F 94% 29.83 in 6.2 mi ENE 5.8 mph - N/A   Partly Cloudy
7:00 AM 77.0 °F - 73.4 °F 89% 29.83 in 6.2 mi ENE 6.9 mph - N/A   Partly Cloudy
8:00 AM 80.6 °F 85.4 °F 73.4 °F 79% 29.86 in - ENE 13.8 mph - N/A   Clear
9:00 AM 83 °F - 73 °F 64% 29.88 in 12 mi ENE 15.0 mph - -   Partly Cloudy
9:00 AM 82.4 °F 88.2 °F 73.4 °F 74% 29.86 in 6.2 mi ENE 15.0 mph - N/A   Scattered Clouds
10:00 AM 84.2 °F 89.6 °F 71.6 °F 66% 29.89 in 6.2 mi NE 13.8 mph - N/A   Mostly Cloudy
11:00 AM 86.0 °F 91.8 °F 71.6 °F 62% 29.86 in 6.2 mi NE 13.8 mph - N/A   Mostly Cloudy
12:00 PM 87.8 °F 93.8 °F 71.6 °F 58% 29.86 in 6.2 mi NE 10.4 mph - N/A   Partly Cloudy
1:00 PM 89.6 °F 94.7 °F 69.8 °F 52% 29.83 in 6.2 mi ENE 12.7 mph - N/A   Partly Cloudy
2:00 PM 91.4 °F 96.8 °F 69.8 °F 49% 29.80 in 6.2 mi NE 13.8 mph - N/A   Partly Cloudy
3:00 PM 91 °F - 66 °F 34% 29.80 in 12 mi NE 13.8 mph - -   Scattered Clouds
3:00 PM 91.4 °F 94.0 °F 66.2 °F 43% 29.80 in 6.2 mi NE 13.8 mph - N/A   Partly Cloudy
4:00 PM 91.4 °F 94.0 °F 66.2 °F 43% 29.77 in 6.2 mi NE 16.1 mph - N/A   Partly Cloudy
5:00 PM 89.6 °F 92.2 °F 66.2 °F 46% 29.77 in 6.2 mi NE 15.0 mph - N/A   Partly Cloudy
6:00 PM 86.0 °F 88.2 °F 66.2 °F 51% 29.77 in 6.2 mi NE 12.7 mph - N/A   Scattered Clouds
7:00 PM 84.2 °F 87.3 °F 68.0 °F 58% 29.80 in - NE 16.1 mph - N/A   Clear
8:00 PM 82.4 °F 85.4 °F 68.0 °F 62% 29.83 in - NE 13.8 mph - N/A   Clear
9:00 PM 80 °F - 70 °F 64% 29.87 in 12 mi NE 9.2 mph - -  
9:00 PM 78.8 °F - 69.8 °F 74% 29.86 in - NE 9.2 mph - N/A   Clear
10:00 PM 78.8 °F - 71.6 °F 78% 29.86 in - NE 4.6 mph - N/A   Clear
11:00 PM 77.0 °F - 71.6 °F 83% 29.86 in - NE 6.9 mph - N/A   Clear